{"data":{"norad_id":59479,"intl_designator":"2024-069A","name":"DUMMY SAT 3","alt_names":[],"object_type":"PAYLOAD","status":"ACTIVE","operator":null,"country":"CIS","launch_date":"2024-04-11","launch_site_code":"VOSTO","launch_vehicle":null,"mission":null,"orbit_class":"UNKNOWN","rcs_meters":null,"size_class":null,"mass_kg":null,"dimensions":null,"purposes":[],"wikipedia_slug":null,"has_3d_model":false,"image_url":null,"decayed_at":null,"tle_current":{"epoch":"2026-05-25T02:22:39.262656Z","epoch_age_seconds":69796,"freshness":"FRESH","line1":"1 59479U 24069A   26145.09906554 -.00000233  00000+0  00000+0 0  9998","line2":"2 59479   2.0677  81.6767 0051206 133.9330 226.1245  0.98609715  7586","mean_motion":0.98609715,"eccentricity":0.0051206,"inclination_deg":2.0677,"raan_deg":81.6767,"arg_perigee_deg":133.933,"mean_anomaly_deg":226.1245,"bstar":0,"rev_number":758,"period_min":1460.3023647315,"perigee_km":36040.737776246,"apogee_km":36477.393897941,"semimajor_km":42637.202837094,"source":"CELESTRAK","updated_at":"2026-05-25T13:38:01.454194Z"}}}